Regional Weather Roundup
Issued by NWS

Home | Current Version | Previous Version | Text Only | Print | Product List | Glossary On
Versions: 1 2 3 4 5 6 7 8 9 10 11 12 13 14 15 16 17 18 19 20 21 22 23 24 25 26 27 28 29 30 31 32 33 34 35 36 37 38 39 40 41 42 43 44 45 46 47 48
000
ASUS45 KPSR 231710
RWRAZ

ARIZONA REGIONAL HOURLY WEATHER ROUNDUP
NATIONAL WEATHER SERVICE TUCSON AZ
1000 AM MST FRI JUN 23 2017

NOTE: FAIR INDICATES FEW OR NO CLOUDS BELOW 12,000 FEET WITH NO
SIGNIFICANT WEATHER AND/OR OBSTRUCTIONS TO VISIBILITY.

AZZ001>003-036-231800-
NORTHWEST ARIZONA

CITY           SKY/WX    TMP DP  RH WIND       PRES   REMARKS
BULLHEAD CITY  SUNNY     99  55  23 SW6       29.76S
KINGMAN        SUNNY     97  46  17 SW18      29.97S
$$

AZZ004>008-015-016-018-231800-
NORTH CENTRAL ARIZONA

CITY           SKY/WX    TMP DP  RH WIND       PRES   REMARKS
GRAND CANYON   SUNNY     86  26  11 VRB3      30.23F
PRESCOTT       SUNNY     94  32  11 MISG      30.11S
FLAGSTAFF      SUNNY     85  23  10 W9        30.25S
PAYSON         SUNNY     90  39  17 W8        30.14S
PAGE           SUNNY     92  29  10 E5        30.04S
$$

AZZ009>014-017-231800-
NORTHEAST ARIZONA

CITY           SKY/WX    TMP DP  RH WIND       PRES   REMARKS
WINSLOW        SUNNY     93  28  10 W6        30.10S
SAINT JOHNS    SUNNY     89  26  10 N8        30.14F
WINDOW ROCK    SUNNY     86  26  11 CALM      30.23F
SHOW LOW       SUNNY     84  27  12 N7        30.23S
$$

AZZ023-231800-
GREATER PHOENIX AREA

CITY           SKY/WX    TMP DP  RH WIND       PRES   REMARKS
PHOENIX        SUNNY     97  55  24 W6        29.80F
BUCKEYE        SUNNY     93  54  26 S5        29.82S
GLENDALE       SUNNY     97  57  26 SW7       29.82S
LUKE AFB       SUNNY     96  57  27 SW7       29.80S
DEER VALLEY    SUNNY     96  52  22 S8        29.83S
SCOTTSDALE     SUNNY     96  54  24 SW6       29.85S
MESA-FALCON    SUNNY     97  57  26 W5        29.83S
MESA-GATEWAY   SUNNY     97  57  26 CALM      29.84S
CHANDLER       SUNNY     95  57  28 VRB6      29.82F
$$

AZZ027-028-231800-
SOUTHWEST MARICOPA COUNTY AND PINAL COUNTY

CITY           SKY/WX    TMP DP  RH WIND       PRES   REMARKS
CASA GRANDE    SUNNY     97  54  23 W8        29.85S
$$

AZZ503-504-507>509-231800-
SOUTHEAST ARIZONA

CITY           SKY/WX    TMP DP  RH WIND       PRES   REMARKS
TUCSON         SUNNY     96  56  26 VRB7      29.95S
DAVIS-MONTHAN  SUNNY     93  57  29 W5        29.93F
RYAN FIELD     SUNNY     95  57  28 W3        29.93S
NOGALES        MOSUNNY   92  56  29 CALM      30.04S
SIERRA VISTA   MOSUNNY   92  51  24 W10G18    30.10F
DOUGLAS        MOSUNNY   92  52  25 W7G16     30.03F
SAFFORD        SUNNY     98  49  18 NW24      29.89F
$$

AZZ020-021-025-026-031-231800-
SOUTHWEST ARIZONA

CITY           SKY/WX    TMP DP  RH WIND       PRES   REMARKS
YUMA           MOSUNNY   95  56  26 S10       29.77S
$$

CAZ031-033-041-043-047-048-061-231800-
SOUTHERN CALIFORNIA

CITY           SKY/WX    TMP DP  RH WIND       PRES   REMARKS
DOWNTOWN L.A.  NOT AVBL
L.A. AIRPORT   CLOUDY    66  62  87 W6        29.90F
SAN DIEGO      CLOUDY    69  62  78 W7        29.93R
BURBANK        SUNNY     73  59  61 S6        29.90S
ONTARIO        MOSUNNY   73  61  65 CALM      29.91S HAZE
RIVERSIDE      SUNNY     74  62  66 VRB3      29.91S
PALM SPRINGS   SUNNY     95  54  25 E6        29.79F
EL CENTRO NAS  MOSUNNY   91  68  46 NE6       29.76S
IMPERIAL       SUNNY     90  72  55 NE5       29.74S
BLYTHE         SUNNY     95  60  31 VRB7      29.76F
$$

NVZ020-UTZ003-231800-
SOUTHERN NEVADA-UTAH

CITY           SKY/WX    TMP DP  RH WIND       PRES   REMARKS
LAS VEGAS      SUNNY    101  22   6 NE8       29.87F
SALT LAKE CITY SUNNY     78  34  20 NW7       30.17S
$$

NMZ009-TXZ055-231800-
NEW MEXICO-WEST TEXAS

CITY           SKY/WX    TMP DP  RH WIND       PRES   REMARKS
ALBUQUERQUE    MOSUNNY   86  38  18 VRB3      30.10S
EL PASO        MOSUNNY  100  36  11 N15       29.90R
$$


........................KEY........................
SKY/WX - SKY CONDITION/WEATHER
TMP    - TEMPERATURE IN FAHRENHEIT
DP     - DEWPOINT IN FAHRENHEIT
RH     - RELATIVE HUMIDITY IN PERCENT
WIND   - DIRECTION AND SPEED IN MILES PER HOUR (MPH)
VRB    - VARIABLE WIND DIRECTION
PRES   - MEAN SEA LEVEL PRESSURE IN INCHES OF MERCURY
         F - FALLING PRESSURE   R - RISING PRESSURE
         S - STEADY PRESSURE
VSB    - VISIBILITY IN MILES
HX     - HEAT INDEX IN FAHRENHEIT
WCI    - WIND CHILL INDEX IN FAHRENHEIT
TC     - TEMPERATURE IN CELSIUS WHICH IS ALSO KNOWN AS
         TEMPERATURE IN CENTIGRADE
AFB    - AIR FORCE BASE
         LUKE AFB IS LUKE AIR FORCE BASE
         DAVIS-MONTHAN IS DAVIS-MONTHAN AIR FORCE BASE
NAS    - NAVAL AIR STATION
         EL CENTRO NAS IS EL CENTRO NAVAL AIR STATION
N/A    - NOT AVAILABLE





USA.gov is the U.S. government's official web portal to all federal, state and local government web resources and services.